When you browse on this site, cookies collect data to enhance your experience and personalize the content and advertising you see.
Visit our Privacy Policy to learn more. By continuing to use the site, you agree to this use of cookies and data.
  • în România
  • Lista ţărilor
  • Pe 7 zile
  • Temperatura apei
  • Meteo pe hartă
  • Widget-uri
  • user-avatar
    Intrare

    Meteo pe oră la Cacheu

    Astăzi, 7 Decembrie, Sâmbătă

    Timp Temperatura Precipitaţii Vânt Presiune Umiditate
    00:00 +20°C° 0 mm 2 m/s 758 mmHg 64%
    01:00 +19°C° 0 mm 2 m/s 757 mmHg 63%
    02:00 +19°C° 0 mm 2 m/s 757 mmHg 62%
    03:00 +19°C° 0 mm 2 m/s 757 mmHg 56%
    04:00 +19°C° 0 mm 2 m/s 757 mmHg 49%
    05:00 +18°C° 0 mm 2 m/s 758 mmHg 42%
    06:00 +20°C° 0 mm 3 m/s 758 mmHg 39%
    07:00 +21°C° 0 mm 3 m/s 758 mmHg 36%
    08:00 +24°C° 0 mm 3 m/s 759 mmHg 32%
    09:00 +27°C° 0 mm 3 m/s 758 mmHg 28%
    10:00 +30°C° 0 mm 3 m/s 758 mmHg 23%
    11:00 +34°C° 0 mm 3 m/s 758 mmHg 19%
    12:00 +35°C° 0 mm 3 m/s 757 mmHg 18%
    13:00 +36°C° 0 mm 3 m/s 757 mmHg 16%
    14:00 +37°C° 0 mm 3 m/s 756 mmHg 15%
    15:00 +36°C° 0 mm 2 m/s 756 mmHg 18%
    16:00 +35°C° 0 mm 2 m/s 756 mmHg 21%
    17:00 +34°C° 0 mm 2 m/s 756 mmHg 24%
    18:00 +31°C° 0 mm 2 m/s 757 mmHg 27%
    19:00 +28°C° 0 mm 3 m/s 757 mmHg 29%
    20:00 +26°C° 0 mm 3 m/s 758 mmHg 32%
    21:00 +25°C° 0 mm 3 m/s 758 mmHg 37%
    22:00 +24°C° 0 mm 3 m/s 758 mmHg 43%
    23:00 +22°C° 0 mm 3 m/s 758 mmHg 48%

    Mâine, 8 Decembrie, Duminică

    Timp Temperatura Precipitaţii Vânt Presiune Umiditate
    00:00 +22°C° 0 mm 3 m/s 757 mmHg 45%
    01:00 +22°C° 0 mm 3 m/s 757 mmHg 43%
    02:00 +22°C° 0 mm 3 m/s 757 mmHg 40%
    03:00 +21°C° 0 mm 3 m/s 757 mmHg 35%
    04:00 +21°C° 0 mm 3 m/s 757 mmHg 30%
    05:00 +20°C° 0 mm 3 m/s 757 mmHg 26%
    06:00 +22°C° 0 mm 3 m/s 757 mmHg 25%
    07:00 +24°C° 0 mm 3 m/s 758 mmHg 25%
    08:00 +25°C° 0 mm 4 m/s 758 mmHg 25%
    09:00 +28°C° 0 mm 4 m/s 758 mmHg 22%
    10:00 +32°C° 0 mm 4 m/s 758 mmHg 19%
    11:00 +35°C° 0 mm 4 m/s 758 mmHg 16%
    12:00 +37°C° 0 mm 3 m/s 757 mmHg 15%
    13:00 +38°C° 0 mm 3 m/s 756 mmHg 15%
    14:00 +39°C° 0 mm 3 m/s 755 mmHg 14%
    15:00 +37°C° 0 mm 3 m/s 755 mmHg 16%
    16:00 +36°C° 0 mm 2 m/s 755 mmHg 18%
    17:00 +35°C° 0 mm 2 m/s 755 mmHg 21%
    18:00 +32°C° 0 mm 2 m/s 755 mmHg 23%
    19:00 +30°C° 0 mm 2 m/s 756 mmHg 25%
    20:00 +27°C° 0 mm 3 m/s 756 mmHg 27%
    21:00 +26°C° 0 mm 3 m/s 757 mmHg 33%
    22:00 +25°C° 0 mm 3 m/s 757 mmHg 39%
    23:00 +25°C° 0 mm 3 m/s 757 mmHg 45%

    Poimâine, 9 Decembrie, Luni

    Timp Temperatura Precipitaţii Vânt Presiune Umiditate
    00:00 +24°C° 0 mm 3 m/s 756 mmHg 42%
    01:00 +24°C° 0 mm 3 m/s 756 mmHg 39%
    02:00 +24°C° 0 mm 3 m/s 756 mmHg 36%
    03:00 +22°C° 0 mm 3 m/s 756 mmHg 35%
    04:00 +22°C° 0 mm 3 m/s 756 mmHg 33%
    05:00 +21°C° 0 mm 3 m/s 756 mmHg 32%
    06:00 +24°C° 0 mm 3 m/s 757 mmHg 31%
    07:00 +25°C° 0 mm 4 m/s 757 mmHg 29%
    08:00 +26°C° 0 mm 4 m/s 758 mmHg 28%
    09:00 +30°C° 0 mm 4 m/s 758 mmHg 24%
    10:00 +34°C° 0 mm 4 m/s 757 mmHg 19%
    11:00 +37°C° 0 mm 4 m/s 757 mmHg 14%
    12:00 +40°C° 0 mm 4 m/s 756 mmHg 13%
    13:00 +40°C° 0 mm 3 m/s 756 mmHg 11%
    14:00 +42°C° 0 mm 3 m/s 755 mmHg 9%
    15:00 +39°C° 0 mm 3 m/s 755 mmHg 13%
    16:00 +37°C° 0 mm 3 m/s 755 mmHg 18%
    17:00 +35°C° 0 mm 2 m/s 755 mmHg 23%
    18:00 +31°C° 0 mm 2 m/s 755 mmHg 28%
    19:00 +29°C° 0 mm 2 m/s 756 mmHg 33%
    20:00 +26°C° 0 mm 2 m/s 756 mmHg 39%
    21:00 +25°C° 0 mm 2 m/s 757 mmHg 43%
    22:00 +24°C° 0 mm 2 m/s 757 mmHg 48%
    23:00 +23°C° 0 mm 1 m/s 757 mmHg 52%

    10 Decembrie, Marţi

    Timp Temperatura Precipitaţii Vânt Presiune Umiditate
    00:00 +22°C° 0 mm 1 m/s 757 mmHg 53%
    01:00 +22°C° 0 mm 1 m/s 757 mmHg 55%
    02:00 +22°C° 0 mm 1 m/s 756 mmHg 56%
    03:00 +21°C° 0 mm 1 m/s 756 mmHg 52%
    04:00 +21°C° 0 mm 1 m/s 756 mmHg 47%
    05:00 +20°C° 0 mm 1 m/s 756 mmHg 43%
    06:00 +21°C° 0 mm 2 m/s 756 mmHg 39%
    07:00 +24°C° 0 mm 2 m/s 757 mmHg 35%
    08:00 +25°C° 0 mm 2 m/s 757 mmHg 31%
    09:00 +29°C° 0 mm 2 m/s 757 mmHg 28%
    10:00 +32°C° 0 mm 2 m/s 757 mmHg 25%
    11:00 +36°C° 0 mm 2 m/s 757 mmHg 22%
    12:00 +38°C° 0 mm 3 m/s 756 mmHg 20%
    13:00 +39°C° 0 mm 3 m/s 756 mmHg 18%
    14:00 +40°C° 0 mm 3 m/s 755 mmHg 16%
    15:00 +37°C° 0 mm 3 m/s 755 mmHg 27%
    16:00 +35°C° 0 mm 4 m/s 755 mmHg 38%
    17:00 +32°C° 0 mm 4 m/s 755 mmHg 49%
    18:00 +29°C° 0 mm 3 m/s 755 mmHg 61%
    19:00 +27°C° 0 mm 2 m/s 756 mmHg 72%
    20:00 +25°C° 0 mm 2 m/s 756 mmHg 84%
    21:00 +24°C° 0 mm 2 m/s 757 mmHg 85%
    22:00 +24°C° 0 mm 1 m/s 757 mmHg 87%
    23:00 +24°C° 0 mm 1 m/s 757 mmHg 88%

    11 Decembrie, Miercuri

    Timp Temperatura Precipitaţii Vânt Presiune Umiditate
    00:00 +24°C° 0 mm 1 m/s 757 mmHg 88%
    01:00 +23°C° 0 mm 1 m/s 756 mmHg 88%
    02:00 +23°C° 0 mm 1 m/s 756 mmHg 87%
    03:00 +23°C° 0 mm 1 m/s 756 mmHg 88%
    04:00 +20°C° 0 mm 0 m/s 756 mmHg 88%
    05:00 +20°C° 0 mm 0 m/s 756 mmHg 88%
    06:00 +22°C° 0 mm 0 m/s 756 mmHg 80%
    07:00 +24°C° 0 mm 0 m/s 757 mmHg 72%
    08:00 +25°C° 0 mm 0 m/s 757 mmHg 64%
    09:00 +31°C° 0 mm 1 m/s 757 mmHg 51%
    10:00 +34°C° 0 mm 1 m/s 757 mmHg 39%
    11:00 +37°C° 0 mm 1 m/s 757 mmHg 26%
    12:00 +38°C° 0 mm 2 m/s 756 mmHg 26%
    13:00 +38°C° 0 mm 3 m/s 755 mmHg 25%
    14:00 +38°C° 0 mm 3 m/s 754 mmHg 25%
    15:00 +36°C° 0 mm 4 m/s 754 mmHg 34%
    16:00 +34°C° 0 mm 4 m/s 754 mmHg 43%
    17:00 +32°C° 0 mm 4 m/s 754 mmHg 52%
    18:00 +29°C° 0 mm 3 m/s 755 mmHg 62%
    19:00 +27°C° 0 mm 3 m/s 755 mmHg 73%
    20:00 +25°C° 0 mm 2 m/s 756 mmHg 83%
    21:00 +24°C° 0 mm 2 m/s 756 mmHg 83%
    22:00 +24°C° 0 mm 2 m/s 756 mmHg 82%
    23:00 +24°C° 0 mm 2 m/s 757 mmHg 81%

    12 Decembrie, Joi

    Timp Temperatura Precipitaţii Vânt Presiune Umiditate
    00:00 +23°C° 0 mm 2 m/s 756 mmHg 83%
    01:00 +23°C° 0 mm 2 m/s 756 mmHg 84%
    02:00 +21°C° 0 mm 2 m/s 756 mmHg 86%
    03:00 +22°C° 0 mm 1 m/s 756 mmHg 87%
    04:00 +21°C° 0 mm 1 m/s 756 mmHg 89%
    05:00 +19°C° 0 mm 0 m/s 756 mmHg 90%
    06:00 +22°C° 0 mm 1 m/s 756 mmHg 80%
    07:00 +24°C° 0 mm 1 m/s 757 mmHg 71%
    08:00 +26°C° 0 mm 1 m/s 757 mmHg 61%
    09:00 +30°C° 0 mm 1 m/s 757 mmHg 46%
    10:00 +34°C° 0 mm 2 m/s 757 mmHg 31%
    11:00 +37°C° 0 mm 3 m/s 757 mmHg 17%
    12:00 +38°C° 0 mm 3 m/s 756 mmHg 14%
    13:00 +39°C° 0 mm 3 m/s 755 mmHg 12%
    14:00 +42°C° 0 mm 3 m/s 755 mmHg 10%
    15:00 +38°C° 0 mm 3 m/s 755 mmHg 21%
    16:00 +35°C° 0 mm 3 m/s 755 mmHg 32%
    17:00 +31°C° 0 mm 3 m/s 755 mmHg 43%
    18:00 +29°C° 0 mm 3 m/s 755 mmHg 55%
    19:00 +26°C° 0 mm 3 m/s 756 mmHg 68%
    20:00 +24°C° 0 mm 2 m/s 757 mmHg 80%
    21:00 +24°C° 0 mm 2 m/s 757 mmHg 80%
    22:00 +23°C° 0 mm 2 m/s 757 mmHg 80%
    23:00 +23°C° 0 mm 2 m/s 757 mmHg 80%
    Arată mai mult